Regional Weather Roundup
Issued by NWS

Home | Current Version | Previous Version | Text Only | Print | Product List | Glossary Off
Versions: 1 2 3 4 5 6 7 8 9 10 11 12 13 14 15 16 17 18 19 20 21 22 23 24 25 26 27 28 29 30 31 32 33 34 35 36 37 38 39 40 41 42 43 44 45 46 47 48 49 50

000
ASUS43 KMPX 290801
RWRMN
WEATHER ROUNDUP FOR MINNESOTA
NATIONAL WEATHER SERVICE TWIN CITIES/CHANHASSEN MN
300 AM CDT FRI AUG 29 2014


NOTE: "FAIR" INDICATES FEW OR NO CLOUDS BELOW 12,000 FEET WITH NO
SIGNIFICANT WEATHER AND/OR OBSTRUCTIONS TO VISIBILITY. N/A MEANS
CURRENT SKY AND/OR WEATHER CONDITIONS ARE NOT AVAILABLE.

MNZ060>063-068>070-290900-
   Twin Cities Metro

CITY           SKY/WX    TMP DP  RH WIND       PRES   REMARKS
TWIN CITIES    LGT RAIN  66  66 100 SE10      29.82F
ST PAUL        CLOUDY    67  65  93 SE13      29.83F
CRYSTAL        CLOUDY    68  65  90 SE9       29.81F
BLAINE         DRIZZLE   68  66  94 SE7       29.83F
LAKEVILLE      CLOUDY    64  64 100 SE8       29.83F
EDEN PRAIRIE   LGT RAIN  68  66  93 SE6       29.81F
SOUTH ST PAUL  CLOUDY    67  65  95 SE7       29.84F FOG
LAKE ELMO      CLOUDY    64  64 100 SE8       29.86S
$$
MNZ001>005-007-008-013>017-022>024-027-028-290900-
   Northwest Minnesota

CITY           SKY/WX    TMP DP  RH WIND       PRES   REMARKS
BEMIDJI        CLOUDY    64  62  93 S7        29.84F
HALLOCK        CLOUDY    66  64  94 S12       29.78F
ROSEAU         MOCLDY    66  61  82 S8        29.82F
WARROAD        CLOUDY    64  61  88 S3        29.83F
THIEF RVR FALL CLOUDY    63  61  94 S5        29.83S
CROOKSTON      CLOUDY    64  63  94 CALM      29.82S
FOSSTON        CLOUDY    63  61  94 S8        29.83F
DETROIT LAKES  DRIZZLE   64  63  94 SE7       29.83F
MOORHEAD       DRIZZLE   66  66 100 CALM      29.81F
PARK RAPIDS    CLOUDY    64  63  96 SE7       29.83F
MAHNOMEN       RAIN      64  63  95 SE7       29.82F
$$
MNZ006-009>011-018-025>026-290900-
   North Central Minnesota

CITY           SKY/WX    TMP DP  RH WIND       PRES   REMARKS
BAUDETTE       CLOUDY    64  61  90 CALM      29.85R
FLAG ISLAND    CLOUDY    66  63  88 S5        29.81F
INTL FALLS     CLOUDY    60  59  96 CALM      29.87S
WASKISH        CLOUDY    64  61  88 CALM      29.85S
BIG FORK       CLOUDY   N/A N/A N/A CALM      29.87F
LONGVILLE      CLOUDY    63  63 100 SE6       29.84F
GRAND RAPIDS   CLOUDY    61  57  88 SE6       29.87F
CRANE LAKE     CLOUDY    59  55  88 CALM      29.90S
ORR            DRIZZLE   59  55  88 CALM      29.85F
COOK           DRIZZLE   61  57  88 SE3       29.88F
WALKER         DRIZZLE   63  62  96 SE3       29.84F
$$
MNZ012-019>021-037-290900-
   Northeast Minnesota

CITY           SKY/WX    TMP DP  RH WIND       PRES   REMARKS
DULUTH         CLOUDY    61  56  83 SE8       29.89F
ELY            CLOUDY    59  54  82 CALM      29.90F
HIBBING        CLOUDY    59  56  89 SE5       29.88F
EVELETH        CLOUDY    57  54  88 NE3       29.89F
DULUTH HARBOR  CLOUDY    63  61  94 NE9       29.89F
TWO HARBORS    CLOUDY    57  52  82 NE3       29.89F
SILVER BAY     CLOUDY    55  55 100 CALM      29.90F
GRAND MARAIS     N/A     59  54  83 CALM      29.92F
G MARAIS ARPRT CLOUDY    54  50  87 S3        29.95F
$$
MNZ029>031-032-039>041-046>048-054>057-064-290900-
   West Central Minnesota

CITY           SKY/WX    TMP DP  RH WIND       PRES   REMARKS
FERGUS FALLS   CLOUDY    66  64  94 SE8       29.80F FOG
WHEATON        FOG       63  63 100 E5        29.81F VSB 1
MORRIS         CLOUDY    66  64  94 E6        29.80F FOG
ALEXANDRIA     CLOUDY    64  63  96 SE6       29.84F
ELBOW LAKE     CLOUDY    64  64  99 S6        29.81F FOG
WADENA         CLOUDY    63  63 100 SE6       29.82F FOG
GLENWOOD       CLOUDY    64  63  94 SE7       29.82F FOG
APPLETON       CLOUDY    66  64  94 SE8       29.78F FOG
BENSON         CLOUDY    64  64 100 SE6       29.80F FOG
ORTONVILLE     FOG       66  64  94 E3        29.79S VSB 3/4
MADISON        LGT RAIN  68  66  94 SE8       29.79F VSB 3/4
WILLMAR        CLOUDY    66  64  94 E6        29.82F FOG
$$
MNZ033>034-036-042>043-049>051-058-059-290900-
   Central Minnesota

CITY           SKY/WX    TMP DP  RH WIND       PRES   REMARKS
ST CLOUD       CLOUDY    67  65  93 E6        29.82F FOG
SAUK CENTRE    CLOUDY    64  63  97 SE6       29.82F FOG
PAYNESVILLE    RAIN      62  63 100 E6        29.82F
AITKIN         CLOUDY    66  61  82 SE6       29.84F
PINE RIVER     CLOUDY    63  63 100 SE6       29.87F
BRAINERD       CLOUDY    62  62 100 SE5       29.85F FOG
STAPLES        LGT RAIN  63  63 100 SE5       29.83F
LONG PRAIRIE   CLOUDY    63  63 100 E7        29.83F FOG
LITTLE FALLS   CLOUDY    63  61  94 E3        29.83  FOG
LITCHFIELD     CLOUDY    66  66 100 SE7       29.82F FOG
BUFFALO        LGT RAIN  66  64  93 E6        29.82F
MAPLE LAKE     CLOUDY    67  66  96 SE3       29.83F FOG
$$
MNZ037-044-045-052-053-290900-
   East Central Minnesota

CITY           SKY/WX    TMP DP  RH WIND       PRES   REMARKS
PRINCETON      CLOUDY    66  64  94 E3        29.84F
MORA           CLOUDY    63  61  94 E5        29.86F FOG
CAMBRIDGE      CLOUDY    66  59  77 SE5       29.83F
RUSH CITY      CLOUDY    64  63  94 SE5       29.85F
MOOSE LAKE     CLOUDY    63  61  94 SE3       29.86F
HINCKLEY       CLOUDY    64  63  94 E5        29.86F
CLOQUET        RAIN      61  57  88 E3        29.89F
MCGREGOR       CLOUDY    63  61  94 SE6       29.87F
$$
MNZ071>073-080-081-089-090-097-098-290900-
   Southwest Minnesota

CITY           SKY/WX    TMP DP  RH WIND       PRES   REMARKS
MONTEVIDEO     FOG       64  64 100 SE3       29.80F VSB 3/4
GRANITE FALLS  FOG       65  65 100 E3        29.81F VSB 3/4
CANBY          FOG       66  65  97 E5        29.80S VSB 1/2
MARSHALL       CLOUDY    66  64  94 SE6       29.79F VSB 1/2
REDWOOD FALLS  FOG       67  67 100 SE9       29.79F VSB 1/4
OLIVIA         FOG       68  64  88 SE7       29.80F VSB 3/4
PIPESTONE      CLOUDY    72  70  94 S13       29.79F FOG
WINDOM         CLOUDY    72  70  94 S9        29.82F FOG
WORTHINGTON    CLOUDY    72  72 100 S10       29.83F
JACKSON        CLOUDY    72  68  88 S10       29.83F
TRACY          CLOUDY    69  68  98 S7        29.79F FOG
SLAYTON        CLOUDY    69  69  99 CALM      29.82F FOG
$$
MNZ065>067-074>077-082>085-091>093-290900-
   South Central Minnesota

CITY           SKY/WX    TMP DP  RH WIND       PRES   REMARKS
MANKATO        CLOUDY    75  66  73 S10       29.82F
NEW ULM        MOCLDY    70  70 100 S8        29.81S FOG
ST JAMES       CLOUDY    72  70  94 S9        29.82F
FAIRMONT       CLOUDY    68  66  94 S15G21    29.82F
GLENCOE        CLOUDY    68  65  91 SE6       29.80F FOG
FARIBAULT      CLOUDY    72  64  78 SE7       29.84F
OWATONNA       CLOUDY    70  66  88 S8        29.85S
WASECA         CLOUDY    68  64  88 S9        29.86S FOG
ALBERT LEA     LGT RAIN  70  68  94 S13       29.85F
$$
MNZ078>079-086>088-094>096-290900-
   Southeast Minnesota

CITY           SKY/WX    TMP DP  RH WIND       PRES   REMARKS
ROCHESTER      RAIN      68  66  93 S12       29.89F FOG
RED WING       TSTM      66  64  94 SE7       29.86S
STANTON        TSTM      68  66  92 SE14      29.82F
DODGE CENTER   CLOUDY    70  66  88 S12       29.86F
WINONA         CLOUDY    63  63 100 SE7       29.89F THUNDER
AUSTIN         LGT RAIN  68  68 100 S7        29.86F
PRESTON        LGT RAIN  67  67 100 CALM      29.90F
$$
ABBREVIATIONS USED IN REMARKS
   TC - TEMPERATURES IN CELSIUS
  WCI - WIND CHILL INDEX
   HX - HEAT INDEX
  VSB - VISIBILITY
$$


USA.gov is the U.S. government's official web portal to all federal, state and local government web resources and services.